星链-35952(STARLINK-35952)

导读

STARLINK-35952是美国太空探索技术公司SpaceX于2025年11月19日发射的星链卫星,属于全球低轨卫星互联网星座Starlink组网的组成部分。星链星座旨在为全球尤其是缺乏传统基础设施的偏远地区提供高速低延迟宽带互联网服务,该卫星是星链持续扩展网络覆盖、提升带宽容量进程中部署的一员,依托规模化低轨组网支撑全球互联接入需求。

Basic Information
目录编号:
66520
目录名称:
STARLINK-35952
国际标识:
2025-265E
轨道中心:
EARTH
卫星名称:
星链-35952
卫星全名:
星链-35952(STARLINK-35952)
卫星状态:
在轨 (已飞行296 天)
发射日期:
2025-11-19 UTC
国别 :
美国 (US)
星等 :
--
This satellite is enrolled in the Space Conjunction Data Service (SCDS) and the current flight risk assessment level is: High Risk
Orbit Information
数据来源 国际轨道数据
星历时间: 2026-09-11T12:58:11+0800
12小时前
查看轨道信息
半长轴: 6861.163km
偏心率: 0.0001059
轨道倾角: 42.999°
近地点辐角 215.945°
升交点赤经 310.429°
平近点角 144.133°
近地点: 482.299km
远地点: 483.753km
周期: 94.266分钟
每日圈数: 15.275879
Detailed Information
固有亮度:
5
最大亮度:
2.5
卫星平台:
Starlink V1.0
覆盖范围:
全球
运营商:
太空探索技术公司
运营商所在国:
美国
制造商(研发单位):
太空探索技术公司
制造商所在国:
美国
使用方式:
暂无
Satellite Introduction
Starlink 计划是 SpaceX 推出的全球卫星互联网项目,通过发射低轨道卫星,为全球尤其是偏远地区提供高速、低延迟的互联网服务。自 2019 年起,Starlink 已部署数千颗卫星,旨在缩小全球数字鸿沟,推动互联网普及。该项目还为军事、航空等行业提供通信支持,带来广泛经济效益。
2D Orbit Map
3D Orbit Map
Orbit Altitude Analysis Chart
Orbit Inclination Analysis Chart
Orbit Comprehensive Analysis Chart
View Comprehensive Chart
Conjunction Data List
Event ID Objects TCA Miss Dist (km) Collision Risk Probability Collision Risk Index (CRI) Action
CDM_260913-215905-799106-652021
2026-09-13T
21:59:59+0000
0.461 km
远距离
1.961378E-4 高风险 0.81
CDM_260912-195505-837306-652021
2026-09-12T
19:55:48+0000
0.575 km
远距离
8.433125E-5 中风险 0.74
CDM_260912-015305-837306-652021
2026-09-12T
01:53:01+0000
0.613 km
远距离
7.037553E-5 中风险 0.72
CDM_260913-171506-378706-652021
2026-09-13T
17:15:14+0000
0.756 km
远距离
5.052048E-5 中风险 0.69
CDM_260912-182105-837306-652021
2026-09-12T
18:21:38+0000
0.718 km
远距离
4.374821E-5 中风险 0.68
CDM_260911-083505-747706-652021
2026-09-11T
08:35:44+0000
0.738 km
远距离
3.5186E-5 中风险 0.66
CDM_260911-100905-747706-652021
2026-09-11T
10:09:53+0000
0.925 km
远距离
1.664998E-5 中风险 0.59
CDM_260912-001805-837306-652022
2026-09-12T
00:18:52+0000
0.998 km
远距离
1.468559E-5 中风险 0.58
CDM_260913-233405-799106-652021
2026-09-13T
23:34:08+0000
1.944 km
极远距离
2.407729E-6 低风险 0.43
CDM_260912-212905-837306-652021
2026-09-12T
21:29:57+0000
1.845 km
极远距离
2.028012E-6 低风险 0.41
Miss Distance Evolution Trend with All Objects
Collision Probability Evolution Trend with All Objects